Location: ????????
(48.4751°N, 37.6926°E)
Time: 07:56:48
(UTC+00:00)

Cosmos 1538 Rocket - Visible Passes

Search period start: 09 May 2021 00:00
Search period end: 19 May 2021 00:00
Orbit: 751 x 793 km, 74.0° (Epoch: 08 May)

Date Brightness Start Highest point End Pass type
(mag) Time Alt. Az. Time Alt. Az. Time Alt. Az.
09 May 5.2 17:59:14 10° N 18:03:58 30° NE 18:08:08 12° ESE visible
09 May 4.7 19:41:11 10° NNW 19:46:20 48° WSW 19:48:30 31° SSW visible
10 May 4.1 19:05:10 10° NNW 19:10:33 75° WSW 19:13:26 28° S visible
10 May 6.4 20:50:13 10° WNW 20:51:42 11° W 20:53:10 10° WSW visible
11 May 4.1 18:29:17 10° NNW 18:34:41 72° ENE 18:38:24 20° SSE visible
11 May 6.1 20:12:38 10° NW 20:16:12 18° W 20:18:45 13° SW visible
12 May 4.6 17:53:30 10° NNW 17:58:42 47° ENE 18:03:24 12° SE visible
12 May 5.5 19:36:04 10° NW 19:40:36 29° W 19:43:46 16° SSW visible
13 May 4.9 18:59:51 10° NNW 19:04:56 45° WSW 19:08:47 16° S visible
14 May 4.3 18:23:48 10° NNW 18:29:09 71° WSW 18:33:51 13° S visible
14 May 6.6 20:09:37 10° W 20:10:15 10° W 20:10:52 10° W visible
15 May 4.1 17:47:54 10° NNW 17:53:17 76° ENE 17:58:35 10° SSE visible
15 May 6.3 19:31:24 10° NW 19:34:46 17° W 19:38:06 10° SW visible
16 May 5.7 18:54:46 10° NW 18:59:11 27° W 19:03:33 10° SSW visible
17 May 5.1 18:18:30 10° NW 18:23:31 42° WSW 18:28:27 10° S visible
18 May 4.4 17:42:26 10° NNW 17:47:45 66° WSW 17:52:59 10° S visible
